Visibility
15.0 15.0 15.0 15.0 15.0 15.0 15.0 15.0 15.0 15.0 15.0 15.0 15.0 15.0 15.0 15.0 15.0 15.0 6.6 15.0 15.0 15.0 15.0 15.0 15.0 15.0 3.0 2.0 4.5 15.0 15.0 15.0 15.0 15.0 15.0 15.0 15.0 15.0 15.0 15.0 15.0 15.0 15.0
15.0 15.0 15.0 15.0 15.0 15.0 15.0 15.0 15.0 15.0 15.0 15.0 15.0 15.0 15.0 15.0 15.0 15.0 15.0 15.0 15.0 13.7 15.0 15.0 3.5 13.4 2.8 1.7 3.2 15.0 15.0 15.0 15.0 15.0 15.0 15.0 15.0 15.0 15.0 15.0 15.0 15.0 15.0
15.0 15.0 15.0 15.0 15.0 15.0 15.0 15.0 15.0 15.0 15.0 15.0 15.0 15.0 15.0 15.0 15.0 15.0 15.0 14.8 15.0 1.2 15.0 15.0 15.0 14.1 2.8 3.7 9.3 9.2 15.0 15.0 15.0 15.0 15.0 15.0 15.0 15.0 15.0 15.0 15.0 15.0 15.0
15.0 15.0 15.0 15.0 15.0 15.0 15.0 15.0 15.0 15.0 15.0 15.0 15.0 15.0 15.0 15.0 15.0 15.0 15.0 15.0 15.0 15.0 0.3 0.2 15.0 15.0 3.6 3.0 0.9 15.0 15.0 15.0 15.0 15.0 15.0 15.0 15.0 15.0 15.0 15.0 15.0 15.0 15.0
15.0 15.0 15.0 15.0 15.0 15.0 15.0 15.0 15.0 15.0 15.0 15.0 15.0 15.0 15.0 15.0 15.0 15.0 15.0 15.0 9.9 15.0 15.0 4.6 15.0 15.0 15.0 7.5 1.2 3.7 6.7 9.3 15.0 15.0 15.0 15.0 15.0 15.0 15.0 15.0 15.0 15.0 15.0
15.0 15.0 15.0 15.0 15.0 15.0 15.0 15.0 15.0 15.0 15.0 15.0 15.0 15.0 15.0 15.0 15.0 15.0 15.0 15.0 15.0 15.0 15.0 15.0 11.5 9.6 15.0 15.0 3.5 2.6 8.2 5.8 15.0 15.0 15.0 15.0 15.0 15.0 15.0 15.0 15.0 15.0 15.0
15.0 15.0 15.0 15.0 14.9 15.0 15.0 15.0 15.0 15.0 15.0 15.0 15.0 15.0 15.0 15.0 15.0 15.0 15.0 15.0 15.0 15.0 15.0 15.0 15.0 15.0 15.0 15.0 5.8 1.9 5.6 5.4 15.0 15.0 15.0 15.0 15.0 15.0 15.0 15.0 15.0 15.0 15.0
15.0 15.0 15.0 15.0 13.8 15.0 15.0 15.0 15.0 15.0 15.0 15.0 15.0 14.4 15.0 15.0 14.3 15.0 15.0 15.0 15.0 15.0 15.0 15.0 15.0 15.0 14.8 15.0 3.3 4.5 4.2 7.6 15.0 15.0 15.0 15.0 15.0 15.0 15.0 15.0 15.0 15.0 15.0
15.0 15.0 15.0 15.0 15.0 14.4 0.8 6.2 15.0 15.0 15.0 15.0 15.0 15.0 0.6 11.3 15.0 15.0 15.0 15.0 15.0 15.0 15.0 15.0 15.0 15.0 6.7 8.4 6.1 3.2 5.0 3.9 15.0 15.0 13.8 15.0 15.0 15.0 15.0 15.0 15.0 15.0 15.0
15.0 15.0 15.0 15.0 15.0 3.2 9.5 3.1 1.1 13.7 15.0 15.0 15.0 15.0 15.0 15.0 15.0 0.7 13.1 15.0 15.0 15.0 15.0 15.0 0.4 15.0 13.3 5.6 8.2 5.3 5.9 4.3 13.6 15.0 15.0 15.0 15.0 15.0 15.0 15.0 15.0 15.0 15.0
11.6 15.0 14.4 15.0 5.6 3.4 15.0 15.0 15.0 15.0 15.0 15.0 15.0 15.0 15.0 15.0 15.0 15.0 15.0 15.0 14.1 15.0 15.0 15.0 15.0 15.0 2.3 0.7 6.0 12.6 11.8 15.0 15.0 15.0 15.0 15.0 15.0 15.0 15.0 15.0 15.0 15.0 15.0
15.0 10.6 10.4 12.9 7.9 15.0 15.0 15.0 15.0 11.1 13.1 15.0 15.0 15.0 15.0 15.0 15.0 15.0 15.0 15.0 15.0 15.0 15.0 15.0 15.0 15.0 5.3 2.9 1.5 0.4 4.7 15.0 15.0 15.0 15.0 15.0 15.0 15.0 15.0 15.0 15.0 15.0 15.0
15.0 9.8 1.4 10.6 15.0 15.0 15.0 15.0 15.0 1.0 9.5 15.0 15.0 15.0 15.0 15.0 15.0 15.0 15.0 15.0 15.0 15.0 14.3 15.0 15.0 15.0 9.1 8.2 6.5 0.9 2.4 4.9 15.0 15.0 15.0 15.0 15.0 15.0 15.0 15.0 15.0 15.0 15.0
15.0 4.7 1.0 8.6 12.2 14.9 13.6 11.6 15.0 1.5 15.0 15.0 15.0 15.0 15.0 15.0 15.0 15.0 15.0 15.0 0.8 0.1 0.1 0.1 15.0 15.0 11.5 14.8 14.9 5.7 3.7 5.5 7.2 9.6 15.0 15.0 15.0 15.0 15.0 15.0 15.0 15.0 15.0
15.0 13.3 15.0 14.1 15.0 15.0 13.0 8.0 13.6 1.3 4.0 15.0 13.2 15.0 6.3 15.0 15.0 15.0 15.0 15.0 15.0 0.1 0.0 0.1 0.1 15.0 15.0 12.9 13.4 12.6 14.9 15.0 9.1 10.8 15.0 15.0 15.0 15.0 15.0 15.0 15.0 15.0 15.0
15.0 15.0 15.0 15.0 15.0 15.0 14.7 7.1 15.0 15.0 15.0 15.0 15.0 15.0 2.0 11.6 2.8 15.0 15.0 15.0 15.0 15.0 15.0 15.0 15.0 11.4 6.7 9.5 12.2 12.3 15.0 15.0 15.0 15.0 15.0 15.0 15.0 15.0 15.0 15.0 15.0 15.0 15.0
12.0 15.0 2.5 15.0 15.0 15.0 15.0 10.4 15.0 7.6 7.7 13.6 15.0 15.0 2.2 3.8 15.0 15.0 15.0 15.0 15.0 15.0 15.0 15.0 15.0 15.0 15.0 15.0 10.7 10.6 15.0 15.0 15.0 13.3 15.0 15.0 15.0 15.0 15.0 15.0 15.0 15.0 15.0
2.6 15.0 15.0 8.6 15.0 15.0 15.0 14.6 6.3 15.0 15.0 15.0 15.0 2.1 4.4 11.0 3.3 15.0 15.0 15.0 15.0 15.0 15.0 15.0 15.0 15.0 15.0 15.0 15.0 15.0 15.0 15.0 15.0 0.7 15.0 15.0 15.0 15.0 15.0 15.0 15.0 15.0 15.0
4.8 2.5 2.1 1.6 10.0 3.0 12.2 14.8 11.5 15.0 15.0 15.0 14.7 1.2 1.2 3.3 8.5 15.0 10.4 15.0 15.0 15.0 15.0 15.0 15.0 14.7 15.0 15.0 3.0 11.8 2.7 11.9 5.7 0.3 0.5 8.5 12.9 15.0 15.0 15.0 15.0 15.0 15.0
11.6 15.0 7.6 2.9 7.4 1.9 15.0 15.0 15.0 15.0 13.3 13.1 15.0 14.9 5.7 5.0 15.0 15.0 14.5 15.0 15.0 15.0 14.4 1.2 14.8 15.0 15.0 12.3 12.2 0.1 0.1 8.2 0.2 11.8 2.2 1.6 0.7 2.0 6.0 11.0 15.0 15.0 15.0
14.0 15.0 3.8 11.9 3.2 2.1 1.5 1.7 15.0 13.7 15.0 15.0 14.3 3.4 0.5 9.7 0.3 3.7 10.8 13.1 15.0 15.0 3.3 1.0 3.6 10.5 0.8 0.2 0.1 13.0 0.6 0.1 1.1 3.2 0.1 0.2 0.2 0.3 1.1 7.3 14.9 15.0 15.0
2.8 1.9 8.9 2.8 2.7 3.7 2.2 0.1 0.1 6.9 4.4 5.3 0.1 1.1 15.0 14.6 1.3 0.5 0.2 0.1 0.0 0.1 14.8 15.0 14.1 15.0 15.0 15.0 8.2 15.0 0.5 0.7 0.1 1.9 1.0 0.1 7.2 0.1 0.4 14.8 14.7 15.0 15.0
11.8 3.0 5.9 5.5 3.7 4.0 3.7 1.7 3.8 7.3 3.8 14.2 15.0 8.3 11.3 15.0 15.0 15.0 15.0 11.9 2.9 4.2 0.2 3.3 13.2 15.0 15.0 14.6 15.0 6.7 14.4 13.1 0.3 0.2 7.1 0.2 0.3 0.1 0.9 14.7 6.9 14.4 15.0
1.2 0.7 0.5 1.1 2.1 1.1 0.2 0.7 8.0 11.7 15.0 13.6 5.9 14.6 15.0 15.0 15.0 15.0 10.7 0.1 0.1 0.1 0.1 0.1 0.1 0.0 0.1 3.9 13.4 12.0 6.1 0.1 0.3 0.1 2.1 0.2 0.4 0.1 0.1 8.4 14.5 15.0 10.4
0.6 1.1 3.0 3.4 0.5 0.5 0.4 0.4 3.2 4.4 12.4 4.9 15.0 15.0 15.0 15.0 15.0 15.0 15.0 1.6 0.8 0.5 13.4 3.7 7.2 4.4 3.8 0.3 13.4 7.8 0.6 5.5 0.1 0.1 0.2 4.7 0.3 0.1 0.4 0.1 2.2 12.2 4.1
0.2 0.3 0.2 0.1 0.1 0.2 0.3 1.2 0.8 0.6 1.8 6.5 14.6 10.9 6.3 15.0 15.0 15.0 15.0 15.0 0.1 0.2 14.9 15.0 13.5 2.8 1.0 4.3 1.1 0.0 5.5 5.6 3.0 0.5 1.4 1.4 0.9 1.1 0.5 0.3 0.4 0.7 0.6